User: anonymous   Login
Location: Unspecified
(0.0000°N, 0.0000°E)
Time: 04:45:36
(UTC+00:00)
Language:

LilacSat-2 - Orbit

View from above orbital plane
View from above orbital plane
View from above satellite
View from above satellite

Ground track
Ground track

The orbit data is extracted from the following two-line orbital elements,

1 40908U 15049K   18350.83021012  .00000131  00000-0  10877-4 0  9996
2 40908  97.4735 349.8398 0017589 115.1729   7.1465 15.13655639178999
Epoch (UTC): 16 December 2018 19:55:30
Eccentricity: 0.0017589
inclination: 97.4735°
perigee height: 513 km
apogee height: 537 km
right ascension of ascending node: 349.8398°
argument of perigee: 115.1729°
revolutions per day: 15.13655639
mean anomaly at epoch: 7.1465°
orbit number at epoch: 17899

The dashed part of the orbit path shows where the satellite is in the earth's shadow,  

DLR